Location: Chilton Park
(37.7711°N, 100.0276°W)
Time: 20:40:11
(UTC+00:00)

Cosmos 1428 Rocket - Pass Details

Date: 08 December 2021
Orbit: 949 x 987 km, 82.9° (Epoch: 16 January)

Event Time Altitude Azimuth Distance (km) Brightness Sun altitude
Rises 23:40:02 0° 355° (N) 3,635 7.3 -4.2°
Reaches altitude 10° 23:42:32 10° 357° (N) 2,690 6.6 -4.6°
Maximum altitude 23:48:41 74° 83° (E) 997 4.5 -5.7°
Drops below altitude 10° 23:54:51 10° 168° (SSE) 2,698 7.0 -6.8°
Sets 23:57:22 0° 170° (S) 3,647 7.7 -7.3°
